Find Starlink 5479

NORAD ID: 55662 Int'l Des: 2023-021 Owner: SPXS Country: US Constellation: starlink operational
LEOCIRCULAR

Live Position

Loading 3D Globe...

About Starlink 5479

Description loading...

Upcoming Passes

Passes for default location (London). Set your location on the main map for personalized predictions.

Altitude History

Loading altitude history...

Two-Line Element Set

1 55662U 23021AL 26105.19058438 -.00000002 00000-0 76900-5 0 9994
2 55662 69.9996 72.3750 0002984 270.1875 89.8942 14.97523540174755
Epoch: Apr 15, 2026 • Age: 24 hours

Current Status

Altitude 576.7 km
Velocity 7.57 km/s
Sub-Earth Point 11.36°N, 159.56°E
Launch Date Feb 17, 2023
Age 3.1 years
Type internet

Technical Details

Classification Payload
Mass 305.00 kg
Dry Mass 290.00 kg
Total Mass 305.00 kg
Length 0.20 m
Diameter 2.80 m
Span 9.00 m
Shape Box + pan
Manufacturer SPXS
Bus Type Starlink
Phase Status In Orbit
Owner/State SPXS/US

Most Searched